Regional Weather Roundup
Issued by NWS

Home | Current Version | Previous Version | Text Only | Print | Product List | Glossary On
Versions: 1 2 3 4 5 6 7 8 9 10 11 12 13 14 15 16 17 18 19 20 21 22 23 24 25 26 27 28 29 30 31 32 33 34 35 36 37 38 39 40 41 42 43 44 45 46 47 48 49 50
000
ASUS43 KTOP 221308
RWRKS

WEATHER ROUNDUP FOR KANSAS
NATIONAL WEATHER SERVICE GOODLAND KS
700 AM CST WED FEB 22 2017

NOTE:  "FAIR" INDICATES FEW OR NO CLOUDS BELOW 12,000 FEET WITH NO
SIGNIFICANT WEATHER AND/OR OBSTRUCTIONS TO VISIBILITY.

KSZ001>006-013>018-027>032-041>047-221400-
NORTHWEST KANSAS

CITY           SKY/WX    TMP DP  RH WIND       PRES   REMARKS
GOODLAND       PTCLDY    44  22  41 NW14      29.85R
HAYS             N/A     42  27  55 N5        29.77S
HILL CITY      FAIR      40  25  55 W5        29.76R
RUSSELL        FAIR      44  30  57 SW9       29.75S
$$

KSZ061>065-074>080-084>089-221400-
SOUTHWEST KANSAS

CITY           SKY/WX    TMP DP  RH WIND       PRES   REMARKS
DODGE CITY     FAIR      37  24  59 SW13      29.82R WCI  29
ELKHART          N/A     45  14  28 W12         N/A
GARDEN CITY    FAIR      37  22  54 SW12      29.79F WCI  29
GREAT BEND     FAIR      43  31  62 SW8       29.78F
LIBERAL        FAIR      32  18  55 SW7       29.84S
PRATT          FAIR      39  29  67 SW9       29.80F
$$

KSZ066>073-081>083-090>101-221400-
SOUTHEAST KANSAS

CITY           SKY/WX    TMP DP  RH WIND       PRES   REMARKS
CHANUTE        FAIR      43  37  79 S6        29.84S
COFFEYVILLE    FAIR      41  40  96 S6        29.86S FOG
HUTCHINSON     FAIR      44  36  73 S8        29.78F
MEDICINE LODGE   N/A     42  34  73 SE5       29.81F
NEWTON         FAIR      48  34  58 S15       29.80F
PARSONS        FAIR      37  36  96 SE3       29.86S FOG
WICHITA INTL   FAIR      40  35  83 S6        29.81F
WICHITA JABRA  FAIR      44  36  73 S9        29.80F
WICHITA MCCONL FAIR      41  34  75 S9        29.80F
WINFIELD       FAIR      44  36  73 SE3       29.84F
$$

KSZ007>012-019>026-033>040-048>060-102>105-221400-
NORTHEAST KANSAS

CITY           SKY/WX    TMP DP  RH WIND       PRES   REMARKS
CONCORDIA      FAIR      52  34  50 SW18      29.69F
EMPORIA        FAIR      46  36  68 S10       29.79F
LAWRENCE       FAIR      39  33  79 E7        29.78F
MANHATTAN      FAIR      51  32  48 SW9       29.73F
MARYSVILLE     FAIR      52  32  46 SW16G22   29.69F
OLATHE IND     FAIR      40  36  86 S9        29.80F
OLATHE EXE     FAIR      43  39  86 S7        29.80F
SALINA         FAIR      53  36  52 S9        29.75S
TOPEKA BILLARD FAIR      48  34  58 S7        29.76F
TOPEKA FORBES  FAIR      45  34  65 S10       29.77F
$$




USA.gov is the U.S. government's official web portal to all federal, state and local government web resources and services.